Location: Krakow
(50.0830°N, 19.9170°E)
Time: 17:45:05
(UTC+01:00)

Vanguard 1 - Visible Passes

Search period start: 11 December 2023 00:00
Search period end: 21 December 2023 00:00
Orbit: 652 x 3828 km, 34.3° (Epoch: 08 December)

Date Brightness Start Highest point End Pass type
(mag) Time Alt. Az. Time Alt. Az. Time Alt. Az.
11 Dec 12.9 17:38:29 10° WSW 17:51:42 46° S 18:08:07 17° ESE visible
11 Dec 13.1 19:58:56 10° W 20:15:08 43° SSW 20:20:48 39° SSE visible
11 Dec 13.7 22:22:44 10° W 22:33:29 25° SW 22:33:29 25° SW visible
12 Dec 12.9 17:58:39 10° WSW 18:12:04 47° S 18:27:35 19° ESE visible
12 Dec 13.2 20:19:31 10° W 20:35:31 40° SSW 20:40:16 36° S visible
12 Dec 13.9 22:44:35 10° W 22:52:57 19° WSW 22:52:57 19° WSW visible
13 Dec 12.9 16:00:05 10° SW 16:10:21 38° SSE 16:27:02 10° E visible
13 Dec 13.0 18:18:53 10° WSW 18:32:28 46° S 18:47:09 21° SE visible
13 Dec 13.4 20:40:15 10° W 20:55:50 35° SSW 20:59:51 33° S visible
13 Dec 14.0 23:07:30 10° WSW 23:12:32 14° WSW 23:12:32 14° WSW visible
14 Dec 12.9 16:19:57 10° SW 16:30:30 41° SSE 16:47:49 10° ESE visible
14 Dec 13.0 18:39:13 10° WSW 18:52:53 44° S 19:06:50 22° SE visible
14 Dec 13.5 21:01:12 10° W 21:16:05 30° SSW 21:19:33 29° SSW visible
15 Dec 12.8 16:39:58 10° SW 16:50:44 42° S 17:08:30 10° ESE visible
15 Dec 13.1 18:59:38 10° WSW 19:13:19 41° SSW 19:26:42 22° SE visible
15 Dec 13.7 21:22:29 10° W 21:36:15 25° SW 21:39:25 24° SSW visible
16 Dec 12.9 17:00:05 10° WSW 17:11:03 43° S 17:29:03 10° ESE visible
16 Dec 13.2 19:20:11 10° WSW 19:33:43 37° SSW 19:46:44 20° SSE visible
16 Dec 13.8 21:44:21 10° WSW 21:56:21 20° SW 21:59:28 19° SSW visible
17 Dec 12.9 17:20:18 10° WSW 17:31:24 42° S 17:49:27 10° ESE visible
17 Dec 13.4 19:40:54 10° W 19:54:04 32° SSW 20:07:01 18° SSE visible
17 Dec 14.0 22:07:26 10° WSW 22:16:23 15° SW 22:19:47 14° SW visible
18 Dec 13.0 17:40:36 10° WSW 17:51:47 40° S 18:09:40 10° SE visible
18 Dec 13.5 20:01:50 10° WSW 20:14:24 28° SSW 20:27:37 15° SSE visible
19 Dec 13.1 18:01:00 10° WSW 18:12:12 37° SSW 18:29:39 10° SE visible
19 Dec 13.7 20:23:09 10° WSW 20:34:40 23° SSW 20:48:39 11° S visible
20 Dec 12.8 16:01:59 10° WSW 16:10:47 38° S 16:25:36 10° ESE visible
20 Dec 13.2 18:21:31 10° WSW 18:32:35 33° SSW 18:49:19 10° SE visible
20 Dec 13.9 20:45:10 10° WSW 20:54:54 17° SW 21:06:40 10° S visible
